Lapse_Rate
5.5 5.4 5.6 5.6 5.5 5.7 5.6 5.6 5.5 5.4 5.5 5.5 5.4 5.4 4.9 4.9 4.9 4.9 5.0 5.1 5.1 5.2 5.1 5.2 5.2 5.2 5.1 5.2 5.0 5.1 5.4 5.5 5.5 5.4 5.4 5.5 5.7 5.6 5.6 5.8 5.6 5.6 5.9
5.8 5.6 5.6 5.6 5.7 5.5 5.6 5.5 5.4 5.4 5.5 5.6 5.4 5.3 5.0 4.6 4.7 4.8 4.9 5.0 5.1 5.3 5.2 5.1 5.1 5.0 5.2 5.2 5.4 5.5 5.4 5.5 5.4 5.3 5.4 5.2 5.2 5.5 5.5 5.5 5.8 5.9 5.9
5.8 5.8 5.9 5.9 5.7 5.5 5.5 5.6 5.4 5.4 5.5 5.4 5.3 5.3 5.3 4.8 4.9 4.8 5.0 5.3 5.3 5.2 5.3 5.1 5.1 5.1 5.2 5.2 5.3 5.2 5.6 5.5 5.2 5.2 5.4 5.2 5.1 5.4 5.4 5.5 5.5 5.7 5.8
5.7 5.8 6.0 6.1 5.9 5.8 5.7 5.6 5.5 5.5 5.6 5.5 5.5 5.5 5.3 5.2 4.9 5.1 5.1 5.1 5.4 5.5 5.4 5.3 5.3 5.2 5.2 5.1 5.1 5.5 5.7 5.6 5.3 5.3 5.3 5.3 5.1 5.1 5.2 5.3 5.5 5.4 5.6
5.6 5.8 6.1 6.2 5.9 5.9 5.8 5.6 5.6 5.6 5.6 5.6 5.6 5.5 5.4 5.4 5.2 5.3 5.3 5.3 5.4 5.5 5.6 5.3 5.1 5.1 4.9 4.7 4.8 5.0 5.5 5.5 5.2 5.1 5.0 4.8 5.0 5.1 5.1 5.3 5.3 5.3 5.4
5.7 5.8 6.0 6.2 6.2 5.9 5.8 5.8 5.6 5.6 5.7 5.6 5.6 5.4 5.5 5.6 5.4 5.3 5.1 5.3 5.5 5.5 5.6 5.4 5.1 5.0 4.9 4.8 4.8 5.1 5.3 5.2 5.0 5.0 4.9 4.7 4.7 5.0 5.1 5.3 5.3 5.3 5.4
5.7 5.9 6.0 6.2 6.3 5.9 5.7 5.7 5.5 5.4 5.4 5.4 5.4 5.3 5.4 5.5 5.4 5.2 5.1 5.4 5.4 5.5 5.4 5.3 5.2 5.0 4.9 4.9 5.0 5.0 5.1 5.1 5.3 5.3 5.2 4.8 4.7 4.9 5.1 5.3 5.4 5.5 5.3
5.5 5.9 6.1 6.3 6.4 6.0 5.6 5.5 5.4 5.3 5.3 5.1 5.4 5.3 5.5 5.4 5.3 5.4 5.3 5.2 5.3 5.4 5.3 5.1 5.1 5.2 5.3 5.2 4.9 5.0 5.2 5.2 5.4 5.6 5.4 5.2 4.9 5.0 4.9 5.0 5.1 5.2 5.3
5.6 5.7 6.0 6.2 6.2 6.3 5.8 5.4 5.5 5.5 5.3 5.2 5.3 5.3 5.1 5.2 5.3 5.4 5.4 5.4 5.3 5.4 5.3 5.1 5.1 5.2 5.4 5.4 5.3 5.3 5.3 5.1 5.0 5.2 5.2 5.3 5.0 5.0 5.1 5.1 5.1 5.2 5.1
5.8 5.9 6.0 6.1 6.1 6.1 6.0 5.4 5.6 5.7 5.7 5.7 5.5 5.2 5.1 5.0 5.2 5.2 5.4 5.5 5.4 5.3 5.2 5.1 5.1 5.2 5.4 5.7 5.5 5.5 5.3 5.1 5.0 4.9 4.9 5.0 4.9 5.1 5.1 5.0 4.9 5.0 5.0
5.7 5.9 6.1 6.0 6.0 6.3 6.0 5.4 5.3 5.3 5.4 5.3 5.2 5.3 5.2 5.1 5.0 5.3 5.3 5.4 5.3 5.5 5.3 5.0 5.1 5.2 5.5 5.6 5.3 5.5 5.3 5.2 5.0 4.9 4.7 4.9 4.8 4.7 5.0 5.0 5.1 4.9 4.8
5.4 5.8 5.9 5.9 6.2 6.4 6.3 5.9 5.3 5.3 5.1 5.2 5.2 5.3 5.2 5.1 5.0 5.1 5.4 5.4 5.4 5.5 5.4 5.2 5.4 5.5 5.6 5.5 5.4 5.3 5.2 4.9 4.9 5.1 5.1 4.9 4.8 4.8 4.9 5.0 4.9 5.2 5.1
5.4 5.7 5.9 6.1 6.2 6.3 6.2 5.8 5.5 5.0 5.1 5.1 5.0 5.1 5.4 4.9 5.1 5.2 5.4 5.5 5.5 5.6 5.5 5.4 5.4 5.3 5.3 5.1 5.0 5.2 5.2 5.0 4.9 4.7 4.8 4.7 4.9 5.0 5.2 5.5 5.3 5.0 5.1
5.7 5.7 5.9 6.2 6.3 6.3 6.3 6.0 5.6 5.2 5.5 5.3 5.0 5.1 5.2 5.3 5.1 5.5 5.7 5.6 5.6 5.6 5.4 5.4 5.4 5.3 5.1 4.9 4.9 4.9 5.0 5.0 4.7 4.8 4.7 4.8 5.2 5.3 5.5 5.3 5.5 5.3 5.1
6.0 6.0 6.1 6.3 6.4 6.2 6.4 6.2 5.6 5.5 5.1 4.9 5.0 5.3 5.0 5.2 5.5 5.1 5.5 5.6 5.9 5.4 5.4 5.4 5.3 5.3 5.2 5.2 5.0 5.0 5.1 5.1 4.9 4.7 4.4 4.6 5.3 5.4 5.1 5.1 5.2 5.5 5.3
6.0 6.1 6.2 6.2 6.4 6.2 5.8 6.1 6.1 5.6 5.3 4.9 4.8 5.1 5.5 5.6 5.4 5.2 5.3 5.7 5.8 5.4 5.5 5.4 5.4 5.5 5.5 5.4 5.2 5.2 5.3 5.3 5.0 4.7 4.6 4.9 5.0 4.9 5.1 4.9 5.2 5.3 5.3
6.4 6.6 6.3 6.3 6.4 6.5 5.9 5.7 5.9 5.8 5.5 5.8 5.4 5.3 5.4 5.4 5.3 5.4 5.5 5.9 5.6 5.5 5.6 5.4 5.4 5.4 5.4 5.3 5.2 5.5 5.5 5.8 5.4 5.1 5.0 5.2 5.1 5.1 5.2 5.1 5.0 5.5 5.2
6.2 6.7 6.4 6.3 6.4 6.5 6.5 6.1 5.9 5.9 5.7 5.8 6.3 6.1 6.0 5.7 5.7 5.8 5.6 5.6 5.6 5.5 5.4 5.3 5.4 5.5 5.4 5.4 5.2 5.6 5.6 5.7 5.3 5.5 5.4 5.3 5.1 5.4 5.1 5.3 4.9 5.2 5.2
6.2 6.3 6.6 6.4 6.6 6.4 6.4 6.6 6.3 6.0 6.0 6.1 6.0 5.8 5.7 5.7 5.8 5.6 5.6 5.7 5.6 5.5 5.3 5.5 5.4 5.4 5.3 5.4 5.5 5.5 5.5 5.3 5.3 5.3 5.3 5.3 5.2 5.3 5.2 5.7 5.4 5.4 5.1
6.2 6.1 6.2 6.2 6.5 6.7 6.6 6.6 6.7 6.6 6.5 6.5 6.3 6.3 6.2 5.8 5.6 5.6 5.8 5.8 5.7 5.7 5.4 5.2 5.3 5.3 5.2 5.5 5.5 5.5 5.6 5.5 5.4 5.4 5.2 5.3 5.4 5.3 5.5 5.6 5.7 5.4 5.3
6.1 6.1 5.9 5.9 6.2 6.6 6.5 6.4 6.6 6.6 6.6 6.6 6.6 6.3 6.0 5.9 6.0 5.9 5.7 5.7 5.5 5.5 5.5 5.5 5.5 5.5 5.3 5.4 5.4 5.4 5.5 5.5 5.5 5.6 5.6 5.6 5.5 5.6 5.5 5.7 5.5 5.6 5.3
6.0 5.9 6.1 6.0 5.9 5.9 6.2 6.5 6.4 6.5 6.4 6.6 6.4 6.2 6.1 6.1 6.1 6.1 6.0 5.8 5.7 5.5 5.6 5.7 5.6 5.7 5.6 5.8 5.6 5.6 5.6 5.5 5.7 5.9 5.7 5.7 5.5 5.6 5.6 5.8 6.2 5.3 5.2
6.4 6.2 6.0 6.2 6.1 6.0 6.1 6.3 6.2 6.1 6.1 6.3 6.0 6.1 6.0 5.9 5.9 5.9 5.9 5.7 5.8 5.8 5.6 5.5 5.3 5.3 5.3 5.7 5.6 5.6 5.7 5.9 5.8 5.8 5.6 5.7 5.7 5.4 5.6 5.6 6.0 5.6 5.1
6.6 6.2 5.9 6.1 6.2 6.3 6.2 6.2 6.3 6.4 6.4 6.2 6.1 6.0 6.2 6.1 6.2 6.1 6.0 6.0 5.9 5.6 5.6 5.6 5.6 5.5 5.7 5.6 5.7 5.6 5.6 5.7 5.6 5.9 5.7 5.7 5.6 5.5 5.6 5.9 5.9 5.7 5.6
6.8 6.5 6.0 6.1 6.3 6.2 6.2 6.2 6.2 6.4 6.5 6.4 6.0 6.0 6.0 6.0 6.1 6.1 5.9 5.9 5.7 5.8 5.7 6.1 6.4 6.4 6.3 6.1 6.0 5.8 5.7 5.6 5.7 5.8 5.9 5.7 5.8 5.6 5.8 5.7 5.7 5.5 5.6
6.8 6.7 6.4 6.2 6.3 6.4 6.3 6.3 6.4 6.5 6.7 6.7 6.5 6.5 6.5 6.5 6.4 6.4 6.3 6.3 6.2 6.2 6.3 6.3 6.3 6.3 6.3 6.2 6.0 5.9 6.0 5.9 5.7 5.5 5.6 5.6 5.6 5.6 5.8 5.8 5.6 5.4 5.4
Wind_Speed
1 4 5 5 7 9 12 15 20 23 21 24 25 25 23 21 19 16 16 15 14 14 13 14 15 15 14 14 15 14 13 11 11 11 10 8 7 7 8 8 10 11 13
4 5 6 5 7 8 13 16 20 23 23 25 25 22 22 21 16 13 13 14 14 13 12 13 14 16 14 15 15 14 13 11 11 10 8 7 8 8 8 9 8 9 12
3 3 1 2 8 12 12 17 20 24 25 24 24 23 23 16 12 12 11 11 13 13 13 15 17 17 16 16 15 14 13 12 11 9 9 7 6 10 8 10 9 9 10
3 1 3 6 9 16 15 19 20 23 26 25 24 22 19 14 12 12 10 10 13 14 17 17 17 17 18 17 16 13 11 11 11 9 7 6 8 9 9 10 11 9 9
3 1 4 4 11 20 20 21 22 24 26 26 23 19 15 14 13 12 11 14 16 17 18 17 18 18 17 15 13 10 9 7 8 8 7 6 6 8 8 9 9 10 10
2 2 7 11 15 20 20 24 24 27 27 25 23 18 15 13 12 12 12 15 17 16 16 17 17 16 14 12 9 6 6 5 6 9 7 4 4 7 8 8 8 9 10
3 4 8 12 15 18 20 23 26 26 28 25 21 14 11 12 11 13 15 16 15 15 14 14 14 13 12 9 5 2 3 7 13 10 7 6 5 7 8 7 10 8 9
4 5 9 14 16 15 19 23 25 29 29 23 17 12 10 9 13 15 16 15 14 13 11 11 12 11 9 6 2 3 5 11 13 11 9 6 6 8 8 8 8 9 10
5 4 8 11 13 15 16 19 25 26 26 24 18 12 9 9 13 15 16 14 13 11 8 7 7 7 6 6 3 5 8 11 13 11 9 8 7 8 9 10 10 9 10
4 4 5 10 12 11 15 20 22 25 24 22 19 12 9 8 16 14 13 13 12 9 6 5 3 3 4 3 1 1 3 9 11 12 11 11 9 8 8 9 10 9 9
4 4 4 5 8 11 13 17 20 22 21 19 15 12 11 3 7 12 8 12 10 7 5 3 1 1 2 2 2 2 1 3 10 11 11 12 10 9 8 9 10 11 9
6 4 3 2 4 5 9 10 11 17 10 10 8 9 11 5 4 7 7 9 8 7 5 5 4 4 4 5 5 5 3 3 7 8 10 12 12 10 8 7 8 10 10
8 7 6 5 4 4 5 8 10 11 8 14 5 8 8 6 5 5 4 5 6 6 5 5 6 6 7 8 8 8 7 7 10 11 14 15 14 12 11 10 10 10 11
9 7 7 5 5 3 6 5 6 5 6 7 10 9 10 6 5 4 5 6 6 6 5 6 6 8 10 11 11 10 9 8 11 12 12 15 17 16 14 14 14 13 13
10 9 10 8 5 6 5 5 5 4 5 7 4 9 6 4 2 4 5 6 7 6 6 6 7 7 8 9 10 8 6 8 12 12 11 15 20 21 18 18 17 18 17
11 11 11 11 7 7 6 5 5 9 10 8 8 10 11 9 5 5 5 5 7 9 10 9 6 4 4 6 5 7 7 9 10 13 13 15 25 21 20 20 19 20 20
10 11 12 12 9 7 7 8 8 10 10 8 11 14 13 14 11 8 5 3 9 10 11 9 8 7 4 4 6 5 4 8 9 11 13 16 15 23 19 24 24 23 23
9 12 11 12 11 10 7 9 9 11 11 10 12 12 13 15 14 9 3 4 9 8 7 3 4 4 4 4 4 4 4 2 6 9 12 13 15 14 21 26 26 25 24
11 13 10 10 10 10 7 7 9 11 10 11 11 12 14 15 15 9 5 5 8 6 3 3 2 2 3 4 4 4 4 4 3 5 6 12 15 14 14 17 25 25 24
8 12 13 8 9 7 5 3 2 3 4 6 8 11 13 13 14 9 6 5 6 3 3 3 3 2 4 4 3 4 4 4 3 4 5 8 10 14 14 14 14 18 24
8 11 9 9 9 5 3 3 1 3 2 2 5 10 11 12 10 8 5 4 5 3 4 3 1 4 2 1 2 3 2 1 2 0 1 2 3 7 9 10 12 12 14
14 10 8 10 8 5 3 2 2 2 2 1 3 8 11 11 10 8 5 4 5 3 5 4 3 1 2 2 1 0 3 3 2 2 3 3 5 6 6 9 8 10 12
12 10 11 10 8 6 5 4 2 3 2 1 3 3 5 10 10 9 7 4 4 3 4 4 3 4 2 1 4 2 1 2 2 2 3 3 5 5 4 4 5 10 11
13 10 8 8 7 7 7 5 5 4 4 4 3 2 4 10 9 10 8 6 5 3 4 3 2 3 1 3 2 2 3 2 2 4 2 4 4 5 5 3 4 4 9
11 9 10 8 7 7 7 7 5 4 3 1 2 4 5 4 8 8 7 6 6 4 5 5 4 4 3 2 3 1 1 1 2 2 4 4 3 4 4 3 3 6 10
8 7 7 8 8 7 7 7 7 8 5 3 4 4 4 2 3 5 7 6 5 6 6 5 5 6 5 4 3 3 3 2 2 2 3 4 3 4 3 3 5 5 9
Wind_Direction
185 200 183 182 152 148 157 143 134 134 132 128 126 126 128 124 113 110 106 112 112 115 125 129 125 127 125 126 117 118 122 122 118 113 113 116 120 123 123 116 117 111 122
144 191 206 184 156 162 161 149 140 136 136 133 135 131 129 124 116 110 115 116 117 117 113 112 116 122 123 118 118 122 121 125 123 116 111 120 138 145 135 138 138 147 140
134 192 30 236 185 173 163 152 144 141 139 134 132 136 133 127 124 121 123 122 131 123 117 115 109 117 120 115 119 117 123 126 122 112 109 109 143 154 158 144 147 152 155
135 90 272 259 220 177 162 155 148 142 142 135 136 138 135 134 129 128 126 128 138 132 121 120 119 121 116 115 113 122 132 121 114 108 104 122 127 150 153 150 150 153 160
114 298 303 94 141 162 158 156 147 141 142 135 136 132 131 133 135 138 133 127 127 124 124 121 120 119 118 116 120 127 142 147 124 122 118 115 124 146 152 159 161 155 154
137 31 61 87 118 147 153 155 148 145 139 134 130 130 128 136 139 140 137 131 122 126 122 122 124 120 119 121 127 148 170 184 149 137 129 143 167 159 158 165 166 163 157
112 53 74 87 110 136 147 154 152 150 141 133 122 112 110 138 141 139 135 125 125 125 123 127 127 127 127 128 134 164 249 196 147 142 146 149 150 145 160 174 173 175 159
126 79 67 85 107 127 143 151 152 149 132 127 127 112 92 125 135 135 132 131 132 129 131 132 131 129 126 122 125 76 91 142 148 148 159 174 171 162 159 158 163 171 170
120 80 66 59 97 113 130 146 141 135 137 138 140 119 91 119 128 140 135 138 135 137 132 129 128 123 119 109 89 88 117 141 150 161 169 183 195 174 167 163 169 174 177
99 64 62 68 67 88 119 135 138 143 142 144 148 143 100 103 135 138 141 138 144 152 151 143 121 95 90 89 100 68 89 173 172 173 181 189 202 184 176 172 172 174 179
121 73 58 83 82 97 113 135 140 139 143 152 150 135 110 149 142 133 151 148 157 161 166 174 171 317 330 323 297 294 329 154 195 189 191 193 203 201 190 181 183 181 183
152 144 139 104 128 120 109 112 130 134 133 128 129 131 155 143 128 139 166 167 174 177 190 220 240 259 283 292 296 305 263 211 183 200 207 198 204 207 211 204 198 190 187
165 165 164 180 177 109 113 109 108 124 123 114 178 158 165 159 172 174 217 198 196 200 216 243 266 277 282 288 293 283 266 216 195 208 214 199 201 210 216 216 211 208 202
173 173 176 187 160 151 140 133 137 125 144 164 170 165 163 177 200 204 227 231 216 228 231 247 259 267 269 268 266 268 272 230 214 218 213 199 199 216 215 217 218 215 210
178 176 179 185 192 164 152 149 143 155 181 200 207 204 238 224 208 225 251 243 238 242 246 260 262 264 273 274 270 257 256 256 203 209 199 200 198 217 215 220 220 219 213
186 176 179 187 189 175 161 172 179 176 200 205 213 225 225 232 234 228 232 238 245 245 254 254 257 264 272 286 285 237 243 254 205 202 201 200 211 211 218 220 221 225 221
188 174 183 184 188 181 188 179 183 207 205 208 207 215 224 227 236 238 252 243 237 246 253 263 275 280 280 286 272 271 256 249 228 212 210 212 222 222 223 224 216 223 219
174 179 180 188 194 189 191 192 187 202 206 213 228 219 216 217 219 226 229 231 231 257 244 220 235 262 261 279 280 278 274 243 258 226 201 214 226 227 229 234 228 217 216
175 174 177 189 193 198 187 192 202 199 202 213 205 211 219 214 217 218 213 227 220 218 227 237 264 223 268 272 284 268 262 266 250 249 223 214 224 223 223 234 224 220 219
167 174 177 182 188 190 163 176 177 174 192 205 206 213 220 223 225 224 242 246 236 233 229 229 232 257 246 266 286 295 292 280 254 219 228 221 199 211 218 224 219 222 216
182 177 186 174 193 160 161 164 173 194 175 208 227 234 229 236 235 228 242 241 240 231 249 243 260 244 259 246 320 314 306 262 332 65 280 239 208 220 207 220 213 216 222
187 190 193 196 184 186 162 161 147 150 224 252 219 230 231 240 241 236 234 232 225 242 250 246 217 283 253 173 200 154 322 322 322 304 251 240 244 233 216 214 227 221 218
186 189 199 199 180 187 169 126 77 61 15 292 247 232 236 236 246 235 233 242 241 235 248 252 261 221 239 291 217 166 316 264 323 325 295 271 242 245 278 171 230 219 214
197 190 194 198 188 184 171 177 176 176 194 225 224 223 222 221 232 233 242 222 224 241 260 265 255 256 167 259 317 250 248 196 241 321 298 272 282 275 287 285 304 255 210
193 183 190 195 190 184 185 191 193 217 225 231 257 260 262 249 240 234 222 215 214 208 222 218 220 221 202 190 196 284 310 299 246 211 283 301 299 240 262 274 277 250 215
194 178 177 181 199 184 186 202 207 210 227 253 268 269 252 240 241 228 228 222 227 216 215 216 216 216 204 201 206 201 202 205 229 208 253 278 261 299 261 265 254 239 215